Temp
60 60 60 60 60 60 59 59 59 59 58 59 59 59 58 58 57 57 54 63 65 68 69 68 67 66 65 65 64 64 64 64 64 64 63 63 62 62 62 62 62 62 63
59 59 58 59 58 58 58 57 56 56 55 56 57 57 56 56 56 55 55 54 62 65 66 66 66 66 65 64 64 64 64 64 63 63 63 62 61 60 60 60 61 61 62
59 58 57 57 56 56 56 55 55 54 54 56 55 55 55 54 55 55 53 54 56 62 63 65 65 64 64 64 63 64 63 62 62 63 62 61 60 60 59 59 59 60 61
59 57 56 56 55 55 54 53 52 52 51 51 50 51 50 52 52 53 53 53 51 54 59 62 63 63 62 62 63 63 63 62 62 62 61 60 60 59 58 58 58 59 59
59 56 54 54 54 53 52 53 51 50 49 49 52 49 47 48 49 54 52 52 51 52 52 59 60 60 61 61 61 61 62 62 62 62 60 59 58 58 57 57 57 58 58
58 56 54 53 54 52 51 51 50 49 48 46 54 51 47 47 47 45 47 52 50 50 51 51 51 54 59 60 60 60 61 61 60 59 59 59 58 57 57 57 57 57 58
57 55 53 53 52 51 49 50 47 47 46 45 44 44 44 45 45 45 45 45 46 48 49 49 49 46 47 57 58 59 59 60 58 58 58 58 57 56 56 56 56 56 57
57 56 53 51 51 50 49 48 47 45 44 44 42 39 37 41 43 45 43 45 42 44 46 48 47 48 46 45 48 56 57 58 58 57 56 56 56 56 56 56 56 56 56
55 53 51 49 48 48 47 45 45 45 42 42 42 41 35 33 35 40 41 40 41 40 40 43 45 45 44 43 45 47 52 52 53 54 55 55 55 55 56 56 55 55 55
52 52 51 49 47 46 45 44 47 43 42 40 40 45 40 39 33 31 37 39 40 42 40 40 40 43 43 42 47 50 51 51 51 52 54 54 55 55 54 55 54 55 55
50 51 49 47 46 45 44 44 42 42 41 40 39 39 38 37 35 33 29 33 37 39 39 39 38 39 42 42 40 44 50 49 50 51 52 52 53 53 53 53 53 54 54
47 48 48 46 45 45 44 43 42 42 40 40 39 38 38 36 35 33 30 31 31 35 38 38 38 38 39 39 46 48 48 47 47 48 49 50 50 51 51 52 52 53 54
48 45 45 45 44 44 45 43 42 41 40 39 38 38 38 38 38 36 33 31 30 33 34 36 37 38 42 36 38 46 46 45 45 46 47 47 48 49 49 50 51 51 52
47 48 47 46 45 45 44 43 41 40 40 39 39 38 38 38 38 38 35 31 27 29 30 32 34 35 35 36 40 45 38 43 44 44 45 45 46 46 47 48 49 50 51
51 45 45 45 45 45 43 42 40 41 40 39 38 38 38 38 38 37 37 35 32 22 26 29 30 34 34 35 37 37 35 41 43 43 43 43 45 45 46 47 47 48 49
50 47 47 45 44 44 43 42 40 41 40 38 40 39 39 41 39 37 36 35 34 30 25 28 29 31 33 37 38 36 34 41 40 41 42 42 43 44 44 45 45 45 47
49 48 47 45 45 45 44 42 41 40 40 39 39 39 39 38 36 35 33 34 32 32 27 27 28 29 28 29 32 33 35 34 34 40 41 42 42 42 42 42 42 43 43
47 47 46 45 45 44 43 41 41 41 39 38 38 38 38 42 35 33 30 29 29 28 26 24 25 26 27 28 29 29 34 38 34 38 40 40 40 41 41 41 41 40 41
45 44 45 45 45 43 43 43 42 40 40 40 39 39 38 35 32 29 29 28 27 31 26 23 24 26 26 27 29 30 30 30 35 38 38 38 39 39 40 40 40 39 40
43 44 45 45 45 44 44 44 41 39 38 38 38 36 36 34 32 30 29 27 28 25 25 24 25 25 26 28 27 25 26 29 29 34 35 35 37 38 38 39 40 38 40
46 45 44 43 43 44 45 42 40 37 36 35 35 36 34 35 38 33 30 26 25 24 23 23 23 24 25 25 24 26 25 26 27 29 28 28 31 30 31 36 38 38 38
47 46 44 42 42 44 41 40 38 35 36 34 33 33 33 36 36 36 35 34 30 24 22 20 22 22 22 22 24 23 23 22 22 27 25 26 29 28 30 31 38 39 40
44 44 43 42 41 40 38 39 38 34 34 32 32 31 33 34 32 30 31 31 29 31 30 23 20 21 21 23 24 23 24 23 23 27 26 24 26 25 30 35 37 38 39
42 40 40 42 40 40 38 38 36 33 32 31 31 30 30 29 28 29 27 26 26 26 27 28 24 24 24 26 27 28 26 26 27 27 26 22 25 25 29 31 35 37 38
41 40 41 40 39 36 37 37 34 30 30 31 32 32 30 28 31 33 27 26 25 25 31 32 32 32 32 32 32 28 25 24 22 25 30 25 23 23 26 27 28 37 36
40 39 39 38 38 34 36 36 34 27 29 28 29 30 34 30 32 32 25 23 20 24 24 25 26 27 28 28 31 27 27 23 23 22 27 25 24 23 21 26 27 25 30
MSLP
1022.43 1022.68 1023.01 1022.84 1023.12 1023.14 1023.21 1023.42 1023.53 1023.68 1023.53 1023.84 1023.83 1023.93 1023.85 1023.81 1023.92 1023.74 1023.49 1023.34 1023.35 1023.10 1023.05 1023.26 1023.32 1023.40 1023.51 1023.81 1023.78 1023.78 1023.56 1023.49 1023.46 1023.63 1023.70 1023.57 1023.55 1023.44 1023.19 1022.84 1022.47 1022.23 1021.70
1022.50 1022.84 1023.08 1023.16 1023.28 1023.30 1023.67 1023.81 1023.96 1024.00 1024.21 1024.21 1024.22 1024.07 1024.01 1024.09 1024.06 1024.03 1023.74 1023.51 1023.38 1023.29 1023.24 1023.31 1023.46 1023.53 1023.79 1023.83 1023.88 1023.89 1023.87 1023.60 1023.60 1023.68 1023.69 1023.77 1023.76 1023.77 1023.58 1023.29 1022.85 1022.39 1021.98
1022.57 1022.83 1023.06 1023.32 1023.69 1023.77 1023.96 1024.21 1024.37 1024.26 1024.49 1024.37 1024.47 1024.37 1024.38 1024.45 1024.48 1024.29 1024.12 1023.71 1023.51 1023.38 1023.45 1023.66 1023.73 1023.82 1023.86 1023.82 1023.91 1023.79 1023.85 1023.91 1023.91 1023.70 1023.71 1023.96 1024.04 1023.96 1023.74 1023.52 1023.14 1022.68 1022.11
1022.49 1022.86 1023.28 1023.74 1023.91 1024.00 1024.22 1024.58 1024.48 1024.69 1024.94 1025.04 1024.98 1024.94 1025.04 1024.92 1024.98 1024.79 1024.34 1024.04 1024.06 1024.12 1023.98 1024.07 1024.04 1024.08 1024.11 1024.14 1024.00 1023.82 1023.87 1023.89 1023.93 1023.71 1023.74 1023.92 1023.91 1023.93 1023.89 1023.63 1023.24 1022.83 1022.29
1022.68 1023.11 1023.68 1023.85 1024.00 1024.42 1024.74 1024.61 1024.91 1025.12 1025.25 1025.36 1025.37 1025.45 1025.45 1025.44 1025.43 1025.05 1024.87 1024.67 1024.50 1024.56 1024.78 1024.66 1024.66 1024.61 1024.48 1024.41 1024.37 1024.19 1024.04 1023.91 1023.79 1023.65 1023.74 1024.01 1024.02 1023.94 1023.82 1023.63 1023.33 1022.82 1022.30
1022.70 1023.28 1023.51 1023.87 1024.21 1024.62 1024.87 1024.89 1025.13 1025.31 1025.49 1025.67 1025.66 1025.74 1025.70 1025.75 1025.76 1025.73 1025.60 1025.31 1025.21 1025.17 1025.05 1025.07 1025.07 1024.89 1024.45 1024.43 1024.44 1024.40 1024.25 1024.05 1023.94 1024.01 1023.96 1024.00 1023.98 1023.88 1023.72 1023.47 1023.12 1022.72 1022.15
1022.96 1023.26 1023.75 1024.27 1024.60 1024.72 1025.00 1025.12 1025.51 1025.65 1025.77 1025.76 1025.99 1026.19 1025.97 1026.08 1026.10 1026.08 1025.89 1026.09 1025.96 1025.75 1025.53 1025.36 1025.21 1025.20 1025.01 1024.71 1024.49 1024.31 1024.11 1024.04 1024.11 1024.00 1023.86 1023.91 1023.85 1023.75 1023.54 1023.17 1022.84 1022.46 1021.96
1023.00 1023.41 1024.00 1024.40 1024.57 1024.89 1025.24 1025.47 1025.67 1025.88 1026.00 1026.00 1026.36 1026.73 1026.81 1026.55 1026.23 1026.12 1026.30 1026.21 1026.39 1026.14 1026.05 1025.83 1025.65 1025.45 1025.36 1025.33 1025.13 1024.65 1024.33 1024.09 1024.03 1024.01 1024.00 1023.90 1023.79 1023.47 1023.13 1022.79 1022.41 1022.09 1021.69
1023.43 1023.83 1024.29 1024.66 1025.00 1025.24 1025.60 1025.69 1025.72 1025.81 1026.11 1026.29 1026.21 1026.51 1027.02 1027.27 1027.05 1026.56 1026.35 1026.29 1026.19 1026.25 1026.28 1026.16 1026.06 1025.88 1025.78 1025.72 1025.39 1024.97 1024.60 1024.39 1024.35 1024.21 1024.00 1023.74 1023.51 1023.22 1022.75 1022.39 1022.08 1021.66 1021.29
1023.89 1024.26 1024.64 1024.90 1025.23 1025.47 1025.66 1025.58 1025.41 1025.77 1026.01 1026.47 1026.54 1026.46 1026.58 1026.83 1027.22 1027.45 1026.65 1026.26 1026.10 1026.05 1026.02 1026.11 1026.16 1025.88 1025.75 1025.64 1025.31 1024.85 1024.49 1024.23 1024.10 1024.04 1023.75 1023.41 1023.10 1022.88 1022.61 1022.08 1021.63 1021.18 1020.73
1024.55 1024.90 1024.99 1025.25 1025.40 1025.54 1025.60 1025.57 1025.76 1025.90 1026.10 1026.60 1026.72 1026.73 1026.81 1026.85 1026.89 1027.12 1027.16 1026.81 1026.34 1025.89 1025.64 1025.79 1025.90 1025.73 1025.56 1025.38 1025.13 1024.80 1024.37 1024.09 1024.09 1023.88 1023.52 1023.23 1022.81 1022.58 1022.35 1021.94 1021.27 1020.68 1020.14
1025.28 1025.27 1025.24 1025.28 1025.39 1025.58 1025.54 1025.67 1025.82 1025.92 1026.19 1026.41 1026.57 1026.69 1026.78 1026.94 1026.91 1026.99 1027.25 1026.97 1026.92 1026.31 1025.82 1025.55 1025.63 1025.56 1025.29 1025.02 1024.89 1024.56 1024.33 1024.29 1024.14 1023.85 1023.44 1023.07 1022.74 1022.34 1021.88 1021.55 1021.06 1020.25 1019.66
1025.21 1025.45 1025.76 1025.90 1025.71 1025.49 1025.56 1025.67 1025.57 1025.66 1025.89 1026.32 1026.43 1026.38 1026.35 1026.42 1026.41 1026.47 1026.69 1026.76 1026.80 1026.50 1026.29 1025.83 1025.55 1025.36 1025.06 1025.02 1024.99 1024.50 1024.34 1024.18 1023.88 1023.49 1023.13 1022.72 1022.35 1021.97 1021.43 1020.82 1020.36 1019.82 1019.11
1025.31 1025.26 1025.00 1025.66 1025.59 1025.47 1025.44 1025.49 1025.58 1025.61 1025.59 1025.72 1025.86 1025.85 1025.97 1026.06 1026.37 1026.32 1026.30 1026.46 1026.61 1026.50 1026.19 1026.02 1025.73 1025.41 1025.24 1025.11 1024.94 1024.46 1024.43 1024.02 1023.44 1022.96 1022.60 1022.24 1021.76 1021.22 1020.69 1020.14 1019.60 1019.10 1018.58
1024.80 1025.11 1025.18 1025.34 1025.15 1025.27 1025.33 1025.45 1025.61 1025.61 1025.62 1025.70 1025.67 1025.66 1025.57 1025.80 1026.01 1026.17 1026.19 1026.42 1026.57 1026.94 1026.54 1025.96 1025.97 1025.38 1025.32 1025.08 1024.89 1024.37 1024.10 1023.65 1023.03 1022.63 1022.12 1021.65 1021.18 1020.64 1020.04 1019.57 1019.13 1018.66 1018.16
1024.50 1024.62 1024.83 1024.92 1025.11 1025.17 1025.15 1025.17 1025.37 1025.39 1025.49 1025.41 1025.34 1025.38 1025.55 1025.56 1025.79 1026.07 1026.20 1026.39 1026.47 1026.90 1027.00 1026.43 1026.10 1025.77 1025.40 1025.02 1024.62 1024.18 1023.83 1023.15 1022.72 1022.16 1021.62 1021.13 1020.63 1020.10 1019.60 1019.10 1018.77 1018.34 1017.66
1023.93 1024.34 1024.33 1024.59 1024.90 1024.88 1024.85 1025.09 1025.36 1025.34 1025.44 1025.31 1025.08 1025.06 1025.37 1025.42 1025.63 1025.86 1026.12 1026.29 1026.34 1026.50 1026.83 1026.46 1026.00 1025.63 1025.32 1025.10 1024.48 1023.98 1023.41 1022.81 1022.25 1021.83 1021.23 1020.59 1020.13 1019.66 1019.18 1018.73 1018.35 1017.87 1017.29
1023.40 1023.97 1024.05 1024.33 1024.51 1024.73 1024.77 1024.91 1024.93 1025.04 1025.09 1025.17 1025.10 1025.09 1025.18 1025.35 1025.51 1025.87 1026.05 1026.26 1026.39 1026.40 1026.70 1026.56 1025.86 1025.45 1025.21 1024.86 1024.34 1023.88 1023.05 1022.44 1022.13 1021.57 1020.90 1020.35 1019.67 1019.07 1018.67 1018.21 1017.82 1017.31 1016.63
1023.45 1023.74 1023.82 1023.95 1023.99 1024.05 1024.31 1024.55 1024.60 1024.77 1024.94 1025.17 1025.20 1025.18 1025.15 1025.28 1025.49 1025.84 1025.92 1026.04 1026.33 1026.19 1026.49 1026.32 1025.74 1025.23 1024.95 1024.59 1024.00 1023.51 1023.00 1022.46 1021.83 1021.20 1020.64 1019.93 1019.30 1018.72 1018.17 1017.70 1017.17 1016.73 1015.97
1023.13 1023.44 1023.58 1023.56 1023.54 1023.63 1023.83 1024.06 1024.27 1024.60 1024.91 1024.98 1025.03 1025.01 1025.15 1025.15 1025.28 1025.45 1025.71 1025.79 1025.98 1026.20 1026.09 1025.82 1025.42 1025.08 1024.78 1024.18 1023.83 1023.39 1022.68 1022.26 1021.51 1020.84 1020.14 1019.64 1018.99 1018.41 1017.80 1017.25 1016.59 1016.26 1015.18
1022.77 1022.91 1022.97 1023.00 1023.10 1023.18 1023.32 1023.64 1023.97 1024.22 1024.52 1024.77 1024.90 1024.89 1024.89 1024.94 1024.78 1025.14 1025.20 1025.55 1025.67 1025.68 1025.65 1025.46 1025.19 1024.84 1024.41 1023.99 1023.68 1023.11 1022.66 1021.92 1021.12 1020.47 1019.86 1019.48 1018.74 1018.08 1017.43 1016.69 1016.00 1015.52 1015.07
1022.66 1022.86 1022.75 1022.69 1022.69 1022.78 1022.82 1023.12 1023.55 1023.97 1024.27 1024.47 1024.62 1024.69 1024.76 1024.63 1024.63 1024.76 1024.81 1025.05 1025.11 1025.19 1025.25 1025.23 1024.97 1024.74 1024.37 1024.14 1023.55 1022.99 1022.40 1021.75 1020.73 1019.87 1019.75 1018.86 1018.38 1017.66 1016.97 1016.28 1015.40 1014.75 1014.36
1022.86 1022.81 1022.64 1022.42 1022.48 1022.48 1022.61 1022.84 1023.18 1023.61 1023.89 1024.17 1024.32 1024.48 1024.59 1024.58 1024.71 1024.85 1024.85 1024.97 1024.89 1024.71 1024.71 1024.79 1024.66 1024.50 1024.14 1023.72 1023.22 1022.55 1021.94 1021.39 1020.70 1019.57 1019.52 1018.65 1017.62 1017.23 1016.37 1015.49 1014.71 1014.22 1013.77
1022.87 1022.59 1022.34 1022.23 1022.19 1022.17 1022.43 1022.63 1022.99 1023.41 1023.70 1023.90 1023.97 1024.14 1024.21 1024.28 1024.49 1024.60 1024.69 1024.60 1024.48 1024.43 1024.43 1024.26 1024.19 1023.93 1023.67 1023.07 1022.60 1021.93 1021.36 1020.75 1019.97 1019.19 1019.00 1018.35 1017.05 1016.71 1015.73 1014.88 1014.16 1013.60 1013.36
1022.41 1022.36 1022.17 1022.00 1021.91 1021.87 1022.06 1022.47 1022.88 1023.21 1023.53 1023.68 1023.73 1023.79 1023.78 1023.89 1024.01 1024.02 1024.20 1024.20 1024.10 1023.97 1023.85 1023.70 1023.49 1023.22 1022.83 1022.33 1021.84 1021.39 1021.06 1020.60 1019.65 1018.62 1018.02 1017.96 1016.94 1016.35 1015.36 1014.62 1014.06 1013.47 1013.12
1022.17 1022.20 1022.02 1021.80 1021.63 1021.66 1021.89 1022.08 1022.44 1022.80 1023.21 1023.40 1023.51 1023.48 1023.31 1023.43 1023.54 1023.66 1023.71 1023.82 1023.85 1023.70 1023.65 1023.48 1023.32 1022.95 1022.58 1022.12 1021.52 1021.30 1020.90 1020.47 1019.81 1018.53 1017.54 1017.55 1016.62 1016.39 1015.63 1014.55 1014.22 1013.80 1013.23
Wind_Speed
4 4 4 4 3 3 4 5 5 4 6 6 6 6 6 6 6 3 2 5 4 1 4 7 8 8 9 9 11 11 11 12 13 15 15 17 19 21 22 22 23 22 22
5 4 4 4 4 4 4 4 5 5 5 4 5 6 6 5 5 5 3 3 3 4 7 7 6 6 6 8 8 10 11 10 12 13 12 14 18 20 21 22 23 24 23
6 5 4 5 4 4 6 5 4 4 5 4 6 6 5 6 6 6 4 3 3 8 7 6 6 6 6 8 7 8 9 11 11 12 13 13 15 18 20 22 22 22 23
7 6 5 5 4 5 5 4 4 4 4 4 3 4 5 5 6 6 5 6 2 3 3 5 6 7 8 8 7 7 8 10 12 11 10 14 16 17 18 20 22 22 23
6 6 4 4 6 5 4 4 4 3 3 3 3 3 3 4 4 4 8 8 6 3 3 9 8 8 8 6 7 8 9 12 12 11 11 14 15 17 18 20 21 23 23
8 7 5 6 5 4 4 4 5 4 1 1 2 3 2 3 4 5 5 6 6 7 4 4 2 3 3 3 5 7 10 12 8 11 12 13 15 17 19 20 22 23 23
6 7 5 5 3 4 4 3 1 2 3 3 2 3 3 4 5 4 4 5 6 5 7 6 4 3 4 10 8 8 10 10 7 9 12 14 15 18 20 21 23 23 24
6 6 5 5 6 4 5 3 3 1 1 3 2 2 3 5 4 3 4 4 6 4 5 5 6 5 3 4 7 13 11 9 10 10 11 12 14 20 23 24 25 25 25
6 7 7 6 5 4 3 1 0 3 1 2 3 4 1 2 1 3 3 2 4 3 3 4 5 5 4 3 5 5 6 3 4 8 11 14 17 20 24 26 27 27 26
7 7 6 6 5 3 3 2 1 2 3 1 0 2 1 4 3 3 3 2 3 3 4 2 3 3 4 4 6 5 5 6 5 8 12 16 19 21 23 26 27 27 26
6 5 6 5 5 3 3 4 5 5 3 2 1 1 1 1 1 2 2 3 2 2 1 1 2 2 3 4 5 7 11 3 7 9 13 17 20 23 24 25 27 29 27
4 5 6 6 5 4 3 4 4 5 3 1 1 1 2 2 3 2 2 3 3 4 2 2 3 4 4 4 8 10 7 8 9 12 15 18 20 24 27 27 27 28 28
3 4 4 4 3 3 2 3 4 4 3 1 2 2 2 3 2 2 2 2 2 3 2 2 3 4 4 4 4 11 11 12 15 17 18 20 22 25 27 28 26 27 28
4 3 6 2 4 4 0 1 0 2 2 2 4 4 2 2 1 2 2 2 2 2 1 4 3 3 3 4 8 15 5 15 18 19 19 20 21 22 22 22 23 23 25
4 4 4 2 3 2 2 2 2 3 1 2 4 5 3 1 1 1 1 1 2 2 3 3 2 3 3 4 8 7 6 14 19 19 20 19 20 21 22 23 21 24 25
4 5 3 2 2 4 4 2 1 3 3 3 3 3 3 3 1 2 1 1 2 2 3 1 3 3 4 6 9 7 7 18 17 17 18 19 20 20 20 19 20 22 24
6 5 5 3 2 2 1 2 1 4 4 5 2 4 3 2 2 1 1 2 2 1 3 3 3 3 3 6 8 7 8 8 5 17 19 20 20 20 17 18 18 22 23
6 6 5 3 2 2 3 4 3 4 3 3 3 3 3 2 1 2 2 2 1 1 2 5 3 2 3 6 7 8 8 7 6 13 19 21 22 19 18 16 18 22 22
6 5 5 4 4 6 6 4 5 5 4 4 3 3 3 1 2 2 3 2 2 1 3 3 5 2 3 4 7 6 6 6 7 16 19 20 19 18 18 19 19 21 22
6 6 6 6 6 5 6 6 5 6 5 3 2 2 2 4 4 5 3 2 2 3 3 3 5 6 4 7 4 5 6 6 8 9 15 17 18 19 20 20 19 19 19
6 6 6 6 6 5 5 7 6 6 6 4 2 2 3 4 9 5 3 2 2 2 3 4 6 6 7 6 6 5 7 8 9 8 7 4 8 8 9 14 15 15 19
1 5 6 6 7 3 9 11 7 5 5 4 3 2 2 2 5 8 6 4 1 2 3 2 4 7 5 6 5 6 7 7 8 3 3 10 6 8 8 7 16 17 16
4 6 6 5 6 6 9 11 11 5 5 5 4 3 3 3 5 4 3 2 3 5 7 4 5 4 7 7 8 9 8 7 9 11 4 8 4 7 7 9 18 19 20
5 6 6 6 5 4 11 11 11 6 4 4 5 5 5 5 6 5 4 3 3 4 4 5 5 6 7 8 8 9 9 8 8 8 4 5 3 6 7 7 18 16 16
3 4 4 6 6 5 12 12 9 5 5 5 4 4 4 5 8 8 3 3 4 5 6 9 12 15 16 17 13 5 5 7 9 9 4 3 4 4 3 4 5 10 16
3 4 5 6 5 6 12 13 10 4 5 3 4 5 5 6 10 8 4 3 4 6 5 6 6 9 10 10 14 5 5 7 7 7 0 3 3 2 4 3 3 2 5
Wind_Direction
99 103 100 94 90 82 86 70 70 60 54 41 41 41 37 34 28 10 346 313 316 189 127 127 115 102 95 73 57 48 46 48 41 26 17 14 12 7 2 357 353 350 346
111 103 96 87 71 66 64 78 70 62 51 39 26 22 33 34 21 39 3 321 256 144 147 148 133 106 87 78 63 40 28 43 40 23 14 18 10 2 359 355 350 345 343
106 107 102 74 55 69 76 63 53 58 49 27 30 29 33 4 11 13 25 323 193 172 150 131 106 97 75 65 48 38 44 38 20 14 29 8 5 359 353 349 346 341 337
109 101 94 78 71 74 70 64 45 43 40 37 13 15 14 17 16 15 19 22 22 26 87 75 96 87 73 53 23 21 27 5 360 4 13 1 352 351 349 343 339 336 334
117 98 87 86 76 69 55 47 49 64 42 10 327 29 31 26 36 19 32 33 40 48 52 63 67 78 70 46 6 355 347 342 342 348 358 350 346 343 340 337 334 330 328
102 103 90 82 83 81 57 62 55 25 28 345 358 23 338 58 46 43 43 38 38 37 41 49 19 335 78 41 6 334 324 325 353 343 331 324 324 328 330 330 328 326 321
104 96 93 100 111 86 81 59 68 42 354 7 46 349 334 58 78 47 34 47 32 31 32 18 9 29 3 21 1 341 322 318 317 305 318 323 324 324 322 324 324 322 318
104 101 106 78 59 63 43 34 48 28 21 34 103 115 13 338 357 21 70 58 36 33 28 15 32 26 10 356 339 345 331 315 311 322 326 323 316 315 317 318 319 316 314
106 101 94 92 82 74 54 2 219 133 163 32 65 139 31 231 307 313 31 46 41 52 27 8 13 13 25 8 5 5 46 52 336 316 310 310 311 310 312 314 313 311 308
89 94 98 90 91 100 61 354 65 129 124 145 358 55 127 164 187 302 307 347 7 27 6 17 357 354 354 333 327 282 213 224 261 292 302 307 309 312 312 310 309 305 303
97 99 96 96 79 60 53 75 81 84 78 120 149 267 287 220 173 156 248 296 324 273 246 239 278 299 298 292 287 279 298 262 308 311 310 312 313 311 309 305 304 301 299
79 67 71 60 53 40 84 110 111 106 116 152 216 203 178 207 245 208 253 265 231 283 261 294 324 314 307 304 326 334 11 349 341 327 321 316 310 306 303 300 297 294 293
92 75 57 44 53 38 130 157 142 138 144 154 229 231 192 229 197 206 172 256 248 279 286 289 276 286 320 347 352 345 341 336 329 321 313 308 304 299 296 294 290 289 287
132 143 104 68 57 49 277 215 132 185 148 169 228 225 225 224 214 209 189 161 301 280 289 248 277 348 14 346 331 332 314 320 319 316 313 306 300 299 298 296 294 293 292
122 101 89 84 54 353 352 314 226 266 285 260 264 252 212 152 141 185 178 185 161 276 283 294 315 6 336 330 317 313 310 313 312 315 305 307 310 306 302 303 302 301 293
136 124 145 104 352 335 356 5 250 290 285 291 273 241 195 178 177 4 103 143 116 157 281 281 269 294 314 312 305 319 297 311 305 311 314 311 314 315 313 306 301 302 289
157 185 164 148 298 334 111 115 240 265 260 277 273 190 220 189 205 145 139 143 142 138 241 275 260 283 295 302 305 298 298 295 299 321 316 316 316 311 318 313 308 304 299
176 185 165 184 237 253 233 232 242 279 249 177 157 146 172 222 191 144 140 165 187 222 195 267 264 297 289 293 286 302 306 307 312 312 321 317 313 309 315 312 311 311 297
182 174 185 211 228 229 227 221 162 136 147 162 195 216 247 240 204 191 213 217 228 236 232 240 290 271 274 282 297 297 286 294 300 312 311 308 311 315 312 315 310 318 305
166 189 218 231 235 233 228 198 167 161 176 169 169 162 190 174 200 221 226 224 242 264 264 281 292 295 291 295 279 292 302 296 300 300 296 295 306 307 309 311 305 320 319
185 211 236 246 247 229 214 187 183 181 172 169 160 143 192 227 229 192 160 217 214 263 292 295 297 298 306 310 311 303 294 301 301 282 281 289 300 295 292 300 294 314 316
331 263 259 249 252 233 209 185 167 175 175 176 188 210 256 168 154 151 140 148 158 286 282 261 295 293 293 305 293 293 295 306 311 253 329 302 286 285 284 281 288 292 288
307 298 298 283 262 242 192 180 174 175 179 188 191 202 244 183 173 189 200 236 314 328 305 277 280 263 298 296 295 294 288 285 283 290 284 288 270 273 278 278 285 289 287
285 288 291 280 266 238 190 184 173 172 180 198 196 209 217 216 211 207 215 289 304 298 288 287 275 287 274 280 277 285 287 286 281 279 238 270 290 285 285 282 290 292 291
287 284 278 289 250 220 187 185 170 176 190 214 218 224 221 218 213 213 227 284 295 293 300 297 304 306 311 312 313 314 314 314 311 305 278 256 276 277 272 296 316 10 351
266 289 302 293 255 201 197 192 186 169 194 206 230 219 229 198 199 217 216 244 279 283 284 291 293 302 306 298 314 303 298 300 304 306 201 258 262 259 320 274 305 324 342